Weather History for Elkins, WV

Change the Weather History Date:

Saturday, December 8, 2012

  Actual Average Record
Temperature  
Mean Temperature 52 °F 34 °F  
Max Temperature 59 °F 44 °F 75 °F (1966)
Min Temperature 45 °F 25 °F -5 °F (1977)
Degree Days  
Heating Degree Days 13 31  
Month to date heating degree days 152 236  
Since 1 July heating degree days 1567 1520  
Cooling Degree Days 0 0  
Month to date cooling degree days 0 0  
Year to date cooling degree days 675 475  
Growing Degree Days 1 (Base 50)    
Moisture  
Dew Point 49 °F    
Average Humidity 83    
Maximum Humidity 93    
Minimum Humidity 72    
Precipitation  
Precipitation 0.38 in 0.11 in 1.60 in (1972)
Month to date precipitation 0.95 0.90  
Year to date precipitation 43.06 43.57  
Snow  
Snow 0.00 in - - ()
Month to date snowfall 0.0  
Since 1 September snowfall 18.4  
Snow Depth 0.00 in    
Sea Level Pressure  
Sea Level Pressure 29.97 in    
Wind  
Wind Speed 5 mph (West)    
Max Wind Speed 15 mph    
Max Gust Speed 24 mph    
Visibility 8 miles    
Events Rain    
T = Trace of Precipitation, MM = Missing Value Source: NWS Daily Summary

Daily Weather History Graph

Daily Weather History Graph

Search for Another Location

Airport:

Trip Planner

Search our weather history database for the weather conditions in past years. The results will help you decide how hot, cold, wet, or windy it might be!

Date:

Astronomy

Dec. 08, 2012 Rise Set
Actual Time 7:25 AM EST 4:57 PM EST
Civil Twilight 6:56 AM EST 5:27 PM EST
Nautical Twilight 6:22 AM EST 6:00 PM EST
Astronomical Twilight 5:50 AM EST 6:32 PM EST
Moon 1:51 AM EST (12/8) 1:24 PM EST (12/8)
Length of Visible Light 10h 30m
Length of Day
9h 31m
Waning Crescent, 28% of the Moon is Illuminated
Dec 8
Waning Crescent
Dec 13
New
Dec 20
First Quarter
Dec 28
Full
Jan 4
Last Quarter

Hourly Weather History & Observations

Time (EST) Temp. Dew Point Humidity Pressure Visibility Wind Dir Wind Speed Gust Speed Precip Events Conditions
12:04 AM 44.6 °F 44.6 °F 100% 29.92 in 4.0 mi Calm Calm - 0.00 in   Overcast
12:51 AM 46.0 °F 44.1 °F 93% 29.94 in 4.0 mi Calm Calm - 0.01 in Rain Light Rain
1:51 AM 46.0 °F 44.1 °F 93% 29.93 in 5.0 mi Calm Calm - N/A   Overcast
2:51 AM 46.9 °F 45.0 °F 93% 29.93 in 4.0 mi Calm Calm - 0.01 in Rain Rain
3:51 AM 48.0 °F 46.9 °F 96% 29.93 in 4.0 mi Calm Calm - 0.03 in Rain Rain
4:51 AM 50.0 °F 48.0 °F 93% 29.93 in 7.0 mi Calm Calm - 0.00 in Rain Light Rain
5:51 AM 52.0 °F 48.9 °F 89% 29.94 in 10.0 mi SW 4.6 mph - 0.01 in   Overcast
6:02 AM 53.6 °F 48.2 °F 82% 29.92 in 10.0 mi WSW 6.9 mph - 0.00 in Rain Light Rain
6:32 AM 53.6 °F 48.2 °F 82% 29.93 in 10.0 mi WSW 8.1 mph - 0.00 in Rain Light Rain
6:51 AM 54.0 °F 48.9 °F 83% 29.94 in 10.0 mi SW 8.1 mph - 0.00 in   Overcast
7:51 AM 55.0 °F 48.9 °F 80% 29.95 in 10.0 mi West 6.9 mph - N/A   Overcast
8:51 AM 55.0 °F 48.9 °F 80% 29.96 in 10.0 mi SSW 8.1 mph - N/A   Overcast
9:51 AM 55.9 °F 50.0 °F 80% 29.97 in 10.0 mi WSW 5.8 mph - N/A   Overcast
10:36 AM 57.2 °F 48.2 °F 72% 29.95 in 10.0 mi Variable 6.9 mph - N/A   Overcast
10:43 AM 55.4 °F 48.2 °F 77% 29.95 in 10.0 mi SW 5.8 mph - N/A   Overcast
10:51 AM 57.0 °F 50.0 °F 77% 29.96 in 10.0 mi Calm Calm - N/A   Overcast
10:59 AM 57.2 °F 50.0 °F 77% 29.94 in 10.0 mi Variable 3.5 mph - N/A   Mostly Cloudy
11:26 AM 57.2 °F 48.2 °F 72% 29.93 in 10.0 mi SW 6.9 mph 17.3 mph N/A   Overcast
11:37 AM 57.2 °F 48.2 °F 72% 29.93 in 10.0 mi SSW 6.9 mph - N/A   Overcast
11:51 AM 57.9 °F 48.9 °F 72% 29.94 in 10.0 mi SW 8.1 mph - N/A   Overcast
12:51 PM 57.0 °F 50.0 °F 77% 29.92 in 10.0 mi SW 9.2 mph - 0.00 in Rain Light Rain
1:48 PM 57.2 °F 50.0 °F 77% 29.91 in 10.0 mi SW 9.2 mph - 0.00 in Rain Light Rain
1:51 PM 57.0 °F 50.0 °F 77% 29.93 in 10.0 mi WSW 10.4 mph - 0.00 in Rain Light Rain
1:58 PM 57.2 °F 50.0 °F 77% 29.91 in 10.0 mi SW 6.9 mph - 0.00 in   Overcast
2:10 PM 57.2 °F 50.0 °F 77% 29.91 in 10.0 mi SW 10.4 mph 18.4 mph 0.00 in   Overcast
2:51 PM 57.9 °F 48.9 °F 72% 29.93 in 10.0 mi WSW 9.2 mph - 0.00 in   Overcast
3:51 PM 57.9 °F 48.9 °F 72% 29.94 in 10.0 mi Variable 4.6 mph - N/A   Overcast
4:51 PM 57.0 °F 48.9 °F 74% 29.95 in 10.0 mi WSW 4.6 mph - 0.00 in   Overcast
5:33 PM 57.2 °F 48.2 °F 72% 29.95 in 10.0 mi SW 9.2 mph 19.6 mph N/A   Overcast
5:51 PM 57.0 °F 48.9 °F 74% 29.96 in 10.0 mi SW 6.9 mph - N/A   Overcast
6:51 PM 57.0 °F 50.0 °F 77% 29.98 in 9.0 mi WSW 10.4 mph - 0.00 in Rain Light Rain
7:17 PM 57.2 °F 48.2 °F 72% 29.98 in 10.0 mi West 10.4 mph 19.6 mph 0.01 in   Overcast
7:51 PM 55.9 °F 50.0 °F 80% 30.00 in 10.0 mi West 10.4 mph - 0.01 in   Overcast
8:49 PM 53.6 °F 50.0 °F 88% 30.00 in 6.0 mi WNW 4.6 mph - 0.01 in Rain Rain
8:51 PM 54.0 °F 50.0 °F 86% 30.01 in 6.0 mi NNW 4.6 mph - 0.01 in Rain Light Rain
9:10 PM 53.6 °F 51.8 °F 94% 30.01 in 2.5 mi NW 5.8 mph - 0.05 in Rain Heavy Rain
9:14 PM 53.6 °F 51.8 °F 94% 30.01 in 1.5 mi WNW 6.9 mph - 0.09 in Rain Heavy Rain
9:23 PM 53.6 °F 50.0 °F 88% 30.01 in 2.0 mi NW 8.1 mph - 0.18 in Rain Rain
9:26 PM 53.6 °F 50.0 °F 88% 30.01 in 4.0 mi NNW 8.1 mph - 0.18 in Rain Light Rain
9:39 PM 51.8 °F 50.0 °F 94% 30.02 in 5.0 mi NW 5.8 mph - 0.19 in Rain Heavy Rain
9:48 PM 51.8 °F 48.2 °F 88% 30.02 in 2.0 mi NNW 9.2 mph - N/A Rain Heavy Rain
9:51 PM 52.0 °F 48.9 °F 89% 30.04 in 2.0 mi NNW 8.1 mph - 0.29 in Rain Heavy Rain
9:54 PM 51.8 °F 48.2 °F 88% 30.03 in 3.0 mi NNW 8.1 mph - 0.01 in Rain Rain
10:02 PM 51.8 °F 48.2 °F 88% 30.03 in 5.0 mi North 8.1 mph - N/A Rain Light Rain
10:18 PM 51.8 °F 48.2 °F 88% 30.03 in 7.0 mi North 3.5 mph - 0.01 in   Overcast
10:31 PM 51.8 °F 48.2 °F 88% 30.03 in 6.0 mi Calm Calm - 0.01 in   Overcast
10:51 PM 51.1 °F 48.9 °F 92% 30.05 in 9.0 mi Calm Calm - 0.01 in   Overcast
11:15 PM 50.0 °F 48.2 °F 94% 30.04 in 6.0 mi Calm Calm - N/A   Overcast
11:51 PM 50.0 °F 48.9 °F 96% 30.06 in 5.0 mi Calm Calm - N/A   Overcast